Tracking 30143 objects as of 20-Jan-2025
HD Live streaming from Space Station
objects crossing your sky now

TITAN 3C TRANSTAGE DEB

Track TITAN 3C TRANSTAGE DEB now!
10-day predictions


NORAD ID: 1668
Int'l Code: 1965-082AF
Perigee: 625.6 km
Apogee: 646.8 km
Inclination: 32.1 °
Period: 97.3 minutes
Semi major axis: 7007 km
RCS: 2.8531 m2 (large)
Launch date: October 15, 1965
Source: United States (US)
Launch site: AIR FORCE EASTERN TEST RANGE (AFETR)

Note: This is SATELLITE DEBRIS
Your satellite tracking list
Your tracking list is empty




NASA's NSSDC Master Catalog

Two Line Element Set (TLE):
1 01668U 65082AF  25020.41663641  .00004849  00000-0  62029-3 0  9999
2 01668  32.0688  64.2252 0015128 250.7148 109.1865 14.80096330142242
Source of the keplerian elements: AFSPC